Total_Precipitation_Accumulation
1.65 1.58 1.48 1.43 1.37 1.30 1.25 1.22 1.14 1.08 1.03 0.99 0.96 0.94 0.87 0.73 0.62 0.58 0.51 0.54 0.55 0.64 0.84 1.08 1.31 1.62 1.91 1.98 1.98 1.82 1.68 1.63 1.48 1.35 1.31 1.44 1.52 1.47 1.40 1.44 1.37 1.19 1.16
1.75 1.71 1.63 1.47 1.38 1.32 1.26 1.25 1.19 1.12 1.05 0.98 0.91 0.84 0.85 0.83 0.74 0.71 0.61 0.57 0.53 0.52 0.67 0.92 1.19 1.49 1.90 2.14 2.22 2.30 2.08 1.94 1.86 1.64 1.40 1.36 1.44 1.46 1.47 1.48 1.53 1.44 1.31
1.97 1.83 1.78 1.67 1.49 1.41 1.39 1.34 1.33 1.26 1.19 1.06 0.95 0.87 0.82 0.83 0.80 0.77 0.73 0.66 0.62 0.57 0.59 0.76 0.98 1.28 1.62 1.98 2.24 2.48 2.56 2.28 2.17 2.07 1.79 1.50 1.46 1.52 1.58 1.61 1.64 1.68 1.56
2.22 2.15 1.95 1.81 1.61 1.56 1.53 1.49 1.42 1.38 1.28 1.17 1.09 0.96 0.86 0.83 0.81 0.82 0.80 0.73 0.70 0.65 0.63 0.68 0.77 1.00 1.33 1.70 2.02 2.33 2.82 2.73 2.50 2.38 2.28 1.90 1.59 1.52 1.58 1.67 1.75 1.80 1.87
2.35 2.38 2.33 2.12 1.90 1.79 1.67 1.57 1.46 1.40 1.36 1.27 1.21 1.13 1.00 0.91 0.87 0.89 0.84 0.74 0.67 0.68 0.68 0.71 0.75 0.83 1.07 1.39 1.78 2.15 2.75 3.03 2.95 2.84 2.74 2.52 2.07 1.74 1.65 1.70 1.82 1.89 2.02
2.28 2.30 2.38 2.38 2.26 2.14 1.98 1.82 1.69 1.52 1.40 1.35 1.36 1.34 1.18 1.04 0.97 0.96 0.94 0.85 0.73 0.66 0.68 0.73 0.76 0.78 0.89 1.11 1.43 1.82 2.30 2.75 2.98 3.09 3.07 3.09 2.87 2.36 2.03 1.92 1.97 2.09 2.20
2.16 2.16 2.11 2.22 2.26 2.19 2.06 1.97 1.88 1.81 1.66 1.51 1.59 1.66 1.54 1.26 1.07 0.98 0.96 0.94 0.84 0.74 0.69 0.70 0.76 0.78 0.82 0.95 1.14 1.43 1.85 2.35 2.74 2.99 3.07 3.17 3.39 3.20 2.71 2.38 2.27 2.34 2.46
2.04 2.13 2.12 2.03 2.05 2.07 2.04 1.97 1.90 1.85 1.79 1.66 1.65 1.77 1.78 1.68 1.33 1.00 0.91 0.90 0.90 0.88 0.80 0.74 0.74 0.81 0.86 0.90 0.91 1.10 1.42 1.93 2.51 2.97 3.18 3.28 3.50 3.79 3.60 3.10 2.82 2.75 2.85
2.05 2.01 2.12 2.11 2.01 1.97 1.95 1.91 1.83 1.75 1.75 1.63 1.47 1.67 1.76 1.53 1.24 1.04 0.92 0.83 0.82 0.90 0.89 0.84 0.80 0.77 0.85 0.93 0.91 0.92 1.08 1.46 2.04 2.60 3.11 3.41 3.58 3.94 4.18 3.93 3.49 3.26 3.32
2.11 2.02 2.01 2.08 2.11 1.99 1.87 1.84 1.85 1.79 1.81 1.81 1.61 1.42 1.40 1.30 1.29 1.13 0.98 0.93 0.87 0.85 0.90 0.89 0.88 0.82 0.81 0.91 0.97 0.95 1.00 1.18 1.63 2.23 2.78 3.38 3.76 4.06 4.52 4.53 4.24 3.76 3.53
2.10 2.06 2.03 2.02 2.03 2.00 1.87 1.80 1.83 1.86 1.87 1.86 1.78 1.55 1.37 1.18 1.11 1.20 1.03 0.94 1.02 0.98 0.92 0.94 0.95 0.93 0.88 0.87 0.96 1.00 1.09 1.21 1.54 1.99 2.51 3.15 3.96 4.32 4.78 5.02 4.65 4.06 3.63
2.14 2.02 1.95 1.96 1.93 1.83 1.79 1.74 1.72 1.71 1.74 1.78 1.74 1.65 1.55 1.46 1.24 1.21 1.15 0.94 0.94 0.96 0.98 1.00 1.05 1.03 0.98 0.97 1.00 1.23 1.27 1.39 1.55 1.81 2.12 2.57 3.30 4.09 4.61 4.93 4.78 4.26 3.83
2.12 2.03 1.94 1.86 1.83 1.75 1.66 1.64 1.65 1.63 1.57 1.60 1.64 1.59 1.50 1.39 1.29 1.32 1.41 1.28 1.11 0.98 1.04 1.08 1.03 1.04 1.07 1.11 1.17 1.35 1.42 1.42 1.38 1.57 1.78 1.93 2.32 3.01 3.84 4.53 4.88 4.67 4.24
1.93 1.86 1.92 1.84 1.77 1.74 1.72 1.69 1.64 1.61 1.60 1.52 1.45 1.44 1.47 1.37 1.34 1.45 1.57 1.67 1.60 1.23 1.05 1.06 1.02 0.99 1.10 1.15 1.24 1.40 1.28 1.39 1.38 1.45 1.57 1.70 1.85 2.21 2.87 3.67 4.54 5.05 4.83
1.86 1.84 1.84 1.82 1.76 1.79 1.83 1.84 1.79 1.65 1.60 1.57 1.51 1.42 1.42 1.40 1.36 1.38 1.45 1.64 1.96 1.80 1.21 0.92 0.95 1.01 1.10 1.20 1.24 1.15 1.10 1.32 1.41 1.47 1.56 1.64 1.74 1.91 2.25 2.81 3.47 4.40 5.05
1.82 1.84 1.83 1.84 1.78 1.72 1.78 1.86 1.81 1.70 1.69 1.62 1.61 1.58 1.45 1.38 1.41 1.45 1.54 1.56 1.66 1.83 1.52 0.93 0.83 0.91 1.08 1.27 1.39 1.17 1.13 1.34 1.38 1.44 1.45 1.47 1.61 1.79 2.02 2.31 2.71 3.30 4.23
1.79 1.77 1.72 1.75 1.81 1.79 1.73 1.79 1.75 1.69 1.69 1.62 1.59 1.62 1.51 1.42 1.53 1.57 1.64 1.68 1.63 1.68 1.72 1.13 0.89 0.96 1.21 1.36 1.44 1.31 1.27 1.26 1.26 1.40 1.45 1.45 1.50 1.70 1.89 2.05 2.25 2.62 3.29
1.76 1.69 1.66 1.67 1.71 1.74 1.72 1.74 1.73 1.68 1.66 1.63 1.58 1.61 1.59 1.51 1.53 1.57 1.68 1.68 1.60 1.53 1.64 1.44 1.13 1.12 1.27 1.42 1.47 1.45 1.42 1.37 1.24 1.35 1.42 1.50 1.50 1.63 1.84 1.93 2.04 2.25 2.62
1.84 1.70 1.65 1.66 1.69 1.75 1.72 1.67 1.75 1.73 1.65 1.57 1.54 1.59 1.62 1.62 1.55 1.50 1.60 1.64 1.57 1.53 1.58 1.61 1.36 1.22 1.32 1.47 1.63 1.68 1.62 1.59 1.43 1.41 1.42 1.51 1.61 1.62 1.75 1.87 1.98 2.10 2.23
1.85 1.76 1.63 1.60 1.67 1.80 1.80 1.78 1.85 1.81 1.69 1.56 1.45 1.46 1.54 1.68 1.70 1.68 1.69 1.65 1.67 1.77 1.75 1.76 1.60 1.41 1.44 1.57 1.75 1.85 1.88 1.81 1.71 1.53 1.55 1.61 1.68 1.72 1.70 1.72 1.73 1.79 1.92
1.67 1.69 1.70 1.63 1.66 1.89 2.11 2.24 2.12 1.85 1.66 1.57 1.40 1.32 1.41 1.69 1.92 2.09 2.12 1.95 1.97 2.15 2.12 2.08 1.94 1.72 1.58 1.65 1.79 1.80 1.91 1.86 1.85 1.73 1.62 1.63 1.61 1.58 1.58 1.59 1.63 1.65 1.74
1.66 1.65 1.68 1.66 1.63 1.81 2.27 2.49 2.10 1.72 1.57 1.52 1.46 1.32 1.34 1.63 1.83 2.01 2.18 2.13 2.13 2.33 2.45 2.38 2.20 1.91 1.55 1.44 1.54 1.79 2.05 2.27 2.26 1.93 1.75 1.77 1.61 1.66 1.60 1.49 1.64 1.71 1.73
1.67 1.66 1.64 1.64 1.61 1.68 2.09 2.30 2.07 1.71 1.55 1.45 1.38 1.35 1.38 1.48 1.65 1.67 1.86 1.94 1.91 2.07 2.31 2.41 2.38 1.91 1.65 1.54 1.81 2.11 2.16 2.28 2.17 2.05 2.06 2.17 1.84 1.76 1.65 1.65 1.77 1.73 1.79
1.59 1.59 1.61 1.58 1.56 1.64 1.98 2.22 2.07 1.74 1.63 1.53 1.47 1.37 1.31 1.35 1.49 1.69 1.80 1.80 1.68 1.71 1.93 2.10 2.30 2.08 1.87 1.91 2.27 2.61 2.74 2.72 2.43 2.25 2.20 2.49 2.10 1.86 1.75 1.72 1.80 1.69 1.69
1.58 1.53 1.52 1.57 1.53 1.56 1.91 2.25 2.13 1.77 1.70 1.60 1.55 1.45 1.32 1.27 1.51 1.73 1.69 1.65 1.55 1.57 1.70 1.93 2.09 2.15 2.18 2.34 2.68 3.15 3.36 3.38 3.07 2.64 2.36 2.44 2.31 2.13 2.11 2.09 2.03 1.90 1.70
1.51 1.51 1.47 1.49 1.48 1.47 1.75 2.17 2.27 1.81 1.69 1.59 1.57 1.50 1.56 1.52 1.65 1.69 1.56 1.63 1.74 1.59 1.50 1.55 1.61 1.67 1.70 1.85 2.32 2.80 3.23 3.42 3.19 3.05 2.58 2.41 2.39 2.44 2.91 2.68 2.27 1.94 1.76